Вернуться в каталог

KOREASAT 6A

АктивенСвязьGEO
NORAD 61910·PAYLOAD·🇰🇷 South Korea

Запущен Nov 11, 2024 с Cape Canaveral Space Force Station

Loading…

TLE

СвежийSource: Space-Track

Эпоха: Sep 14, 2026, 14:21 UTC

1 61910U 24206A   26257.59815444 -.00000370  00000-0  00000-0 0  9994
2 61910   0.0100 155.5335 0000890 354.7973 174.6094  1.00272787  6733

Отслеживайте KOREASAT 6A в реальном времени с AllMySat

Download on the App Store